Rotterdam, Netherlands

5:35 AM CEST on August 31, 2016 (GMT +0200)
Rotterdam

Weather History for EHRD - January, 2014

Change the Weather History Date:

Friday, January 10, 2014

  Actual Average Record
Temperature  
Mean Temperature 44 °F -  
Max Temperature 47 °F 42 °F 55 °F (2005)
Min Temperature 41 °F 33 °F 15 °F (2009)
Degree Days  
Heating Degree Days 21    
Moisture  
Dew Point 40 °F    
Average Humidity 83    
Maximum Humidity 93    
Minimum Humidity 68    
Precipitation  
Precipitation 0.00 in - - ()
Sea Level Pressure  
Sea Level Pressure 29.95 in    
Wind  
Wind Speed 12 mph ()    
Max Wind Speed 18 mph    
Max Gust Speed -    
Visibility 7.7 miles    
Events      
Averages and records for this station are not official NWS values.
T = Trace of Precipitation, MM = Missing Value Source: Averaged Metar Reports

Daily Weather History Graph

Daily Weather History Graph

Search for Another Location

Airport or City:

Trip Planner

Search our weather history database for the weather conditions in past years. The results will help you decide how hot, cold, wet, or windy it might be!

Date:

Astronomy

Jan. 10, 2014 Rise Set
Actual Time 8:46 AM CET 4:52 PM CET
Civil Twilight 8:07 AM CET 5:32 PM CET
Nautical Twilight 7:24 AM CET 6:15 PM CET
Astronomical Twilight 6:43 AM CET 6:56 PM CET
Moon 12:58 PM CET (1/10) 3:24 AM CET (1/10)
Length of Visible Light 9h 25m
Length of Day
8h 06m
Waxing Gibbous, 73% of the Moon is Illuminated
Jan 10
Waxing Gibbous
Jan 16
Full
Jan 24
Last Quarter
Jan 30
New
Feb 6
First Quarter

Hourly Weather History & Observations

Time (CET) Temp. Windchill Dew Point Humidity Pressure Visibility Wind Dir Wind Speed Gust Speed Precip Events Conditions
12:25 AM 46.4 °F 40.1 °F 39.2 °F 76% 29.83 in 6.2 mi West 15.0 mph - N/A   Mostly Cloudy
12:55 AM 44.6 °F 38.1 °F 37.4 °F 76% 29.86 in 6.2 mi West 13.8 mph - N/A   Partly Cloudy
1:00 AM 45 °F - 38 °F 68% 29.87 in 16 mi West 15.7 mph - -   Partly Cloudy
1:25 AM 44.6 °F 38.1 °F 37.4 °F 76% 29.86 in 6.2 mi West 13.8 mph - N/A   Partly Cloudy
1:55 AM 44.6 °F 38.1 °F 37.4 °F 76% 29.86 in 6.2 mi West 13.8 mph - N/A   Partly Cloudy
2:00 AM 44 °F - 38 °F 73% 29.88 in 14 mi West 15.7 mph - -   Scattered Clouds
2:25 AM 44.6 °F 38.4 °F 37.4 °F 76% 29.89 in 6.2 mi West 12.7 mph - N/A   Unknown
2:55 AM 42.8 °F 36.6 °F 37.4 °F 81% 29.89 in 6.2 mi West 11.5 mph - N/A   Unknown
3:00 AM 43 °F - 37 °F 74% 29.90 in 15 mi West 11.2 mph - -  
3:25 AM 42.8 °F 37.0 °F 37.4 °F 81% 29.89 in 6.2 mi West 10.4 mph - N/A   Unknown
3:55 AM 42.8 °F 37.0 °F 37.4 °F 81% 29.89 in 6.2 mi WSW 10.4 mph - N/A   Partly Cloudy
4:00 AM 43 °F - 37 °F 72% 29.90 in 17 mi West 11.2 mph - -   Scattered Clouds
4:25 AM 42.8 °F 37.0 °F 37.4 °F 81% 29.89 in 6.2 mi WSW 10.4 mph - N/A   Unknown
4:55 AM 42.8 °F 37.0 °F 37.4 °F 81% 29.92 in 6.2 mi WSW 10.4 mph - N/A   Partly Cloudy
5:00 AM 44 °F - 38 °F 71% 29.92 in 14 mi WSW 11.2 mph - -  
5:25 AM 42.8 °F 36.6 °F 37.4 °F 81% 29.92 in 6.2 mi WSW 11.5 mph - N/A   Unknown
5:55 AM 42.8 °F 37.5 °F 39.2 °F 87% 29.92 in 6.2 mi WSW 9.2 mph - N/A   Mostly Cloudy
6:00 AM 43 °F - 38 °F 78% 29.93 in 13 mi WSW 11.2 mph - -   Scattered Clouds
6:25 AM 41.0 °F 35.2 °F 37.4 °F 87% 29.92 in 6.2 mi WSW 9.2 mph - N/A   Partly Cloudy
6:55 AM 41.0 °F 35.8 °F 39.2 °F 93% 29.92 in 6.2 mi SSW 8.1 mph - N/A   Scattered Clouds
7:00 AM 42 °F - 39 °F 85% 29.94 in 11 mi SW 8.9 mph - -   Partly Cloudy
7:25 AM 42.8 °F 37.0 °F 39.2 °F 87% 29.92 in 6.2 mi SSW 10.4 mph - N/A   Scattered Clouds
7:55 AM 42.8 °F 37.5 °F 39.2 °F 87% 29.95 in 6.2 mi SW 9.2 mph - N/A   Mostly Cloudy
8:00 AM 42 °F - 39 °F 85% 29.95 in 11 mi SW 11.2 mph - -   Partly Cloudy
8:25 AM 42.8 °F 37.0 °F 39.2 °F 87% 29.95 in 6.2 mi SSW 10.4 mph - N/A   Mostly Cloudy
8:55 AM 41.0 °F 33.9 °F 39.2 °F 93% 29.95 in 6.2 mi SSW 12.7 mph - N/A   Scattered Clouds
9:00 AM 42 °F - 39 °F 85% 29.97 in 10 mi SSW 11.2 mph - -   Scattered Clouds
9:25 AM 41.0 °F 34.7 °F 39.2 °F 93% 29.98 in 6.2 mi SSW 10.4 mph - N/A   Scattered Clouds
9:55 AM 42.8 °F 36.2 °F 39.2 °F 87% 29.98 in 6.2 mi SSW 12.7 mph - N/A   Unknown
10:00 AM 42 °F - 40 °F 88% 29.98 in 11 mi SW 13.4 mph - -   Mostly Cloudy
10:25 AM 42.8 °F 35.8 °F 39.2 °F 87% 29.98 in 6.2 mi SSW 13.8 mph - N/A   Unknown
10:55 AM 44.6 °F 38.4 °F 41.0 °F 87% 29.98 in 6.2 mi SW 12.7 mph - N/A   Unknown
11:00 AM 44 °F - 41 °F 83% 30.00 in 12 mi SW 13.4 mph - -  
11:25 AM 44.6 °F 38.4 °F 41.0 °F 87% 29.98 in 6.2 mi SW 12.7 mph - N/A   Mostly Cloudy
11:55 AM 46.4 °F 40.1 °F 42.8 °F 87% 29.98 in 6.2 mi SW 15.0 mph - N/A   Mostly Cloudy
12:00 PM 46 °F - 41 °F 77% 30.00 in 15 mi SW 13.4 mph - -   Scattered Clouds
12:25 PM 46.4 °F 40.4 °F 41.0 °F 81% 29.98 in 6.2 mi SW 13.8 mph - N/A   Partly Cloudy
12:55 PM 46.4 °F 40.4 °F 42.8 °F 87% 29.98 in 6.2 mi SW 13.8 mph - N/A   Partly Cloudy
1:00 PM 47 °F - 42 °F 76% 29.99 in 13 mi SW 15.7 mph - -   Partly Cloudy
1:25 PM 48.2 °F - 42.8 °F 82% 29.98 in 6.2 mi SW 13.8 mph - N/A   Mostly Cloudy
1:55 PM 48.2 °F - 42.8 °F 82% 29.98 in 6.2 mi SW 13.8 mph - N/A   Mostly Cloudy
2:00 PM 47 °F - 42 °F 77% 29.98 in 11 mi SW 11.2 mph - -   Partly Cloudy
2:25 PM 46.4 °F 40.1 °F 41.0 °F 81% 29.98 in 6.2 mi WSW 15.0 mph - N/A   Unknown
2:55 PM 46.4 °F 40.7 °F 41.0 °F 81% 29.98 in 6.2 mi WSW 12.7 mph - N/A   Mostly Cloudy
3:00 PM 47 °F - 41 °F 73% 29.98 in 16 mi SW 15.7 mph - -   Partly Cloudy
3:25 PM 46.4 °F 40.1 °F 41.0 °F 81% 29.98 in 6.2 mi WSW 15.0 mph - N/A   Mostly Cloudy
3:55 PM 48.2 °F - 41.0 °F 76% 29.98 in 6.2 mi SW 13.8 mph - N/A   Mostly Cloudy
4:00 PM 47 °F - 42 °F 75% 29.99 in 14 mi SW 17.9 mph - -   Mostly Cloudy
4:25 PM 46.4 °F 40.4 °F 41.0 °F 81% 29.98 in 6.2 mi SW 13.8 mph - N/A   Scattered Clouds
4:55 PM 46.4 °F 40.7 °F 41.0 °F 81% 29.98 in 6.2 mi SW 12.7 mph - N/A   Mostly Cloudy
5:00 PM 46 °F - 42 °F 81% 29.99 in 17 mi SW 13.4 mph - -   Partly Cloudy
5:25 PM 46.4 °F 41.1 °F 42.8 °F 87% 29.98 in 6.2 mi SSW 11.5 mph - N/A   Mostly Cloudy
5:55 PM 46.4 °F 39.8 °F 42.8 °F 87% 29.98 in 6.2 mi SSW 16.1 mph - N/A   Mostly Cloudy
6:00 PM 46 °F - 42 °F 80% 29.99 in 11 mi SSW 15.7 mph - -   Overcast
6:25 PM 44.6 °F 37.8 °F 42.8 °F 93% 29.98 in 4.3 mi South 15.0 mph - N/A   Mostly Cloudy
6:55 PM 44.6 °F 37.4 °F 41.0 °F 87% 29.98 in 4.3 mi SSW 16.1 mph - N/A   Mostly Cloudy
7:00 PM 45 °F - 42 °F 84% 29.99 in 4 mi SSW 15.7 mph - -   Mist
7:25 PM 44.6 °F 38.4 °F 41.0 °F 87% 29.98 in 4.3 mi SSW 12.7 mph - N/A   Overcast
7:55 PM 44.6 °F 38.4 °F 41.0 °F 87% 29.98 in 5.0 mi SSW 12.7 mph - N/A   Overcast
8:00 PM 44 °F - 41 °F 85% 29.99 in 5 mi SSW 15.7 mph - -   Mist
8:25 PM 44.6 °F 38.1 °F 41.0 °F 87% 29.98 in 5.0 mi SSW 13.8 mph - N/A   Overcast
8:55 PM 42.8 °F 36.2 °F 41.0 °F 93% 29.98 in 5.0 mi SSW 12.7 mph - N/A   Overcast
9:00 PM 44 °F - 41 °F 83% 29.99 in 6 mi SSW 13.4 mph - -   Mist
9:25 PM 42.8 °F 35.4 °F 41.0 °F 93% 29.98 in 4.3 mi SSW 15.0 mph - N/A   Overcast
9:55 PM 42.8 °F 34.8 °F 39.2 °F 87% 29.98 in 5.0 mi SSW 17.3 mph - N/A   Overcast
10:00 PM 43 °F - 40 °F 85% 29.99 in 6 mi SSW 13.4 mph - -   Mist
10:25 PM 42.8 °F 35.1 °F 39.2 °F 87% 29.98 in 5.6 mi SSW 16.1 mph - N/A   Overcast
10:55 PM 42.8 °F 35.4 °F 39.2 °F 87% 29.98 in 5.0 mi SSW 15.0 mph - N/A   Overcast
11:00 PM 42 °F - 40 °F 88% 29.99 in 5 mi SSW 15.7 mph - -   Mist
11:25 PM 42.8 °F 35.1 °F 39.2 °F 87% 29.98 in 5.0 mi SSW 16.1 mph - N/A   Overcast
11:55 PM 42.8 °F 36.2 °F 39.2 °F 87% 29.98 in 5.0 mi SSW 12.7 mph - N/A   Mostly Cloudy